RH
49 46 44 42 42 41 38 36 35 36 37 35 34 34 34 35 36 36 37 37 38 38 36 35 34 34 33 32 32 31 31 29 29 30 31 33 35 36 39 43 44 47 50 52 52 54 57 63 73 81 86 90 92 92 92 92 91 88 86 85 85 87 91 92 93 94 96 98 98 96 96 97 98 99 98 98 98 96 95 95 96 97 97 97 97
48 44 40 41 42 40 37 36 37 37 37 36 35 35 35 36 37 39 40 40 41 40 38 36 36 35 34 33 32 32 31 30 29 30 31 33 34 36 38 40 42 45 48 49 51 53 55 57 62 71 81 86 89 90 91 91 92 90 89 88 86 85 90 95 97 97 96 97 100 100 99 98 98 99 98 97 98 97 97 96 98 99 98 98 98
48 43 40 40 41 39 38 38 38 38 38 38 38 37 38 39 40 42 43 43 42 41 39 37 36 36 35 34 33 32 30 30 30 30 30 31 32 34 36 38 40 42 44 45 47 50 54 55 56 61 70 78 84 88 90 91 92 92 91 91 89 88 92 97 99 99 98 98 99 98 97 96 97 99 99 96 96 97 97 97 98 99 99 99 98
47 42 40 40 39 39 39 40 40 40 40 40 40 40 41 43 44 45 45 44 43 41 39 38 37 36 35 34 33 32 31 31 32 32 31 31 31 33 35 37 38 39 41 43 45 47 50 52 53 54 58 66 75 82 88 90 91 91 92 93 92 91 93 95 96 97 97 97 96 94 93 94 95 98 100 98 98 98 97 96 98 98 99 100 99
46 42 40 39 39 40 41 43 42 42 42 43 43 44 45 46 45 46 46 45 44 42 40 38 37 36 35 34 34 33 33 33 33 33 33 32 32 33 35 37 38 40 42 45 46 46 47 49 51 51 52 55 62 72 81 88 91 91 91 92 93 93 92 93 95 96 95 95 95 95 95 95 95 97 99 99 99 99 97 96 97 98 99 99 99
46 43 41 39 41 43 44 44 43 44 45 45 46 47 47 46 46 47 47 46 44 42 40 38 37 36 36 35 36 36 36 35 34 34 34 35 35 35 37 39 40 42 45 48 48 47 47 48 49 50 51 51 54 60 69 78 85 89 91 91 92 93 93 93 94 95 96 96 97 97 97 96 95 95 96 97 98 98 99 98 98 98 98 99 100
48 44 42 43 45 45 45 45 46 47 48 48 48 47 46 46 47 48 47 46 44 43 41 39 38 38 38 38 38 38 38 37 36 36 37 37 38 38 39 41 43 45 48 50 50 49 49 49 50 51 52 50 50 52 56 63 71 78 85 89 92 94 95 95 95 97 98 97 97 98 97 96 96 96 94 93 93 95 98 99 99 99 99 99 100
50 48 47 47 47 47 47 48 49 50 49 49 48 46 46 48 49 49 47 45 43 42 41 40 40 39 39 39 39 39 38 38 39 40 40 40 40 41 41 42 45 48 49 50 51 51 52 52 52 52 52 52 52 51 51 53 57 63 71 79 86 91 95 96 96 98 99 98 99 99 98 97 98 98 96 93 92 93 96 98 99 98 99 99 100
54 52 51 50 49 49 50 51 51 51 50 49 48 48 49 50 51 49 47 44 42 42 41 40 41 40 39 39 39 38 38 40 42 42 42 42 43 43 44 45 47 49 50 51 51 52 52 53 54 54 54 54 53 52 51 50 51 54 59 66 74 82 89 93 95 96 96 97 99 99 99 98 98 99 98 98 98 97 97 99 100 98 99 100 99
58 56 54 53 52 52 52 52 52 51 50 50 50 50 51 52 52 49 46 44 43 42 42 41 41 40 39 39 39 39 40 42 44 44 43 43 44 45 46 47 48 50 50 51 51 50 50 51 52 53 54 54 54 54 52 51 50 51 53 56 61 68 77 84 91 94 95 97 99 99 99 99 99 99 99 99 99 98 99 100 100 99 99 99 99
60 59 57 55 54 54 53 53 52 51 52 52 52 53 53 54 53 50 47 44 43 43 42 41 40 39 39 39 39 40 42 43 43 43 43 43 44 45 45 46 47 48 49 49 49 49 48 48 48 49 49 51 53 55 55 55 54 54 53 52 54 59 65 72 79 86 92 95 97 97 97 98 98 98 99 99 98 98 98 99 99 100 99 99 99
63 61 58 55 55 55 54 53 53 54 55 55 55 55 56 56 54 50 47 45 44 43 41 40 39 39 39 39 40 41 41 42 43 43 43 43 43 42 42 43 43 44 45 46 47 47 47 47 47 47 47 49 51 55 57 57 57 57 57 56 55 57 60 65 70 76 83 89 93 94 94 95 95 94 95 96 97 97 97 97 98 99 99 99 99
66 63 60 57 56 57 56 56 56 56 56 56 57 58 58 56 54 50 47 45 44 42 40 40 40 40 40 41 40 40 40 40 40 40 40 40 39 39 39 39 38 39 40 41 42 42 42 43 44 44 44 45 48 51 54 56 57 58 59 59 59 58 59 63 67 70 75 81 86 91 93 94 93 93 92 92 93 95 97 98 98 98 98 98 99
69 67 63 60 60 60 59 58 57 57 58 59 59 59 58 55 51 48 46 45 43 42 41 41 41 41 40 39 36 34 34 35 34 33 32 31 31 30 30 30 29 30 30 30 29 30 31 33 34 36 38 40 43 45 48 50 52 55 56 57 58 57 57 60 64 68 71 74 78 85 91 93 93 93 92 92 92 92 94 97 99 99 99 98 99
72 70 67 64 63 62 60 59 58 59 60 61 61 60 58 54 50 47 45 44 44 43 42 40 39 37 34 31 28 26 26 25 24 22 21 20 20 19 19 19 18 18 17 17 17 17 18 19 20 22 25 28 32 36 40 43 46 48 51 52 53 53 54 55 58 61 65 67 70 76 84 90 93 93 92 91 91 92 93 96 98 98 98 98 98
74 73 70 68 66 63 62 61 60 61 61 62 61 59 55 52 48 45 44 44 43 41 38 35 32 28 25 22 19 18 17 16 15 14 13 12 12 11 11 11 11 11 11 11 12 12 12 13 13 14 14 16 19 22 26 30 34 37 40 44 46 48 50 52 54 55 57 60 63 66 71 79 87 92 93 92 91 91 91 92 95 96 96 97 98
76 75 73 70 67 64 63 63 62 62 62 62 60 57 53 49 45 44 44 42 38 34 30 27 23 20 17 14 12 11 11 10 10 10 9 8 8 8 8 9 9 10 10 11 12 12 12 12 12 12 13 13 13 13 14 16 18 21 26 30 34 38 42 45 49 52 54 56 59 62 63 66 73 82 88 91 91 91 90 90 92 93 94 96 98
77 77 75 71 68 66 66 64 63 63 63 61 58 54 49 45 43 43 40 35 30 26 23 20 17 14 12 10 9 8 8 8 8 8 7 7 6 6 7 7 7 9 10 11 12 12 13 13 13 13 14 13 12 11 10 10 11 13 17 20 24 28 31 34 37 41 45 48 51 54 57 60 62 67 73 78 83 86 88 91 93 92 92 92 94
80 78 74 71 70 69 67 65 65 64 62 58 53 49 45 42 41 39 33 28 24 22 19 15 12 10 9 8 8 7 7 7 7 7 7 6 5 5 6 6 7 7 8 9 10 11 12 14 15 15 15 14 13 12 11 11 12 13 15 18 20 23 24 25 26 28 31 33 36 39 44 49 53 56 59 63 68 74 81 88 91 90 91 92 93
80 76 73 72 70 69 67 67 65 62 57 53 49 45 43 41 37 33 27 24 21 18 15 11 9 8 8 7 7 6 6 7 7 6 6 6 6 6 6 6 7 7 7 8 9 10 11 14 15 15 15 14 13 13 13 13 14 15 17 18 19 20 20 19 19 19 20 23 26 29 33 38 42 47 51 54 58 63 70 79 85 89 91 93 93
77 74 72 71 68 67 67 66 62 57 53 49 46 43 40 36 32 28 25 21 18 14 11 9 8 8 8 7 7 7 7 6 7 6 6 6 6 6 6 7 7 7 7 8 9 10 11 14 16 16 14 14 13 14 14 14 15 16 18 19 18 17 17 17 17 16 17 21 25 26 28 31 33 36 41 47 52 56 61 68 76 83 90 93 93
75 73 70 68 67 67 66 62 57 53 51 47 42 39 36 32 28 26 22 18 15 11 9 8 8 8 7 7 7 7 7 7 7 7 7 7 7 7 7 8 8 8 8 8 10 11 12 14 16 16 13 13 13 14 14 15 16 16 17 17 17 16 16 17 17 17 19 23 26 26 27 28 28 28 32 38 44 50 56 62 69 76 85 93 95
73 70 67 66 66 65 62 58 54 52 48 43 38 35 32 30 27 23 19 16 12 10 9 9 8 7 7 7 7 7 7 7 7 7 7 7 7 8 8 8 8 8 9 9 10 12 13 14 15 14 12 12 13 14 14 15 16 17 17 16 16 16 16 17 18 19 20 22 24 25 26 27 27 27 28 29 32 37 46 56 64 70 76 84 92
71 68 66 65 63 61 59 56 54 50 44 39 34 32 31 28 24 20 17 14 11 9 9 8 7 7 7 7 7 7 8 8 8 8 8 8 8 8 8 8 9 9 9 10 11 12 13 14 14 13 12 13 13 14 14 15 16 16 16 16 15 16 16 17 18 20 20 21 22 24 26 28 27 27 28 27 26 30 38 48 57 65 70 75 82
71 68 65 63 61 59 58 55 50 45 41 36 33 32 29 25 21 18 16 12 10 9 9 8 7 7 7 7 8 8 8 9 9 9 9 8 8 8 8 9 9 9 9 10 12 12 13 13 13 13 13 13 12 12 14 15 16 16 16 16 16 17 18 18 19 20 20 21 22 23 26 28 28 27 28 28 28 29 36 42 48 55 63 68 73
71 68 64 62 59 57 55 52 47 43 39 36 34 31 26 22 19 16 13 11 10 9 8 7 7 7 7 7 8 8 9 9 9 9 9 9 9 9 9 9 9 10 10 11 11 12 12 12 12 13 14 13 13 14 15 16 16 17 18 18 18 19 20 19 20 20 20 21 22 23 26 27 28 28 28 29 29 29 33 40 44 46 51 58 64
70 66 63 61 59 56 52 48 43 40 38 35 32 28 23 20 17 14 12 11 10 8 7 7 7 7 7 8 8 9 9 9 9 9 9 9 9 9 9 9 10 10 10 11 11 11 12 12 12 13 14 14 14 15 16 16 17 19 20 20 21 21 21 21 21 20 20 22 22 24 25 25 27 29 29 30 31 32 35 40 43 42 43 46 51
65 63 61 58 56 53 48 42 38 37 35 32 28 23 20 17 14 13 12 11 9 8 8 7 8 8 8 9 9 9 9 9 9 9 9 9 9 9 9 9 10 10 10 10 11 11 11 11 10 11 11 12 13 15 17 18 19 21 21 21 22 21 21 21 21 21 21 21 21 22 24 24 26 30 32 32 34 36 39 41 42 41 41 41 44
61 59 57 55 52 48 41 37 34 33 31 27 23 20 18 16 13 13 12 10 9 8 8 8 8 8 8 9 9 9 9 9 9 9 9 9 9 9 9 9 10 10 10 10 10 10 10 10 10 10 11 11 13 16 18 19 20 21 22 22 22 22 21 21 21 21 21 21 21 21 22 24 26 30 33 34 37 41 43 43 42 41 42 42 44
58 56 54 51 47 41 36 33 31 29 25 23 20 18 17 16 14 13 11 10 8 8 8 8 9 9 9 9 9 9 9 10 10 10 10 10 10 10 10 10 10 10 10 10 10 10 10 10 10 10 11 13 14 17 19 20 21 22 22 22 22 22 22 22 21 21 21 21 21 21 22 24 26 29 32 34 38 44 46 46 43 43 44 47 48
54 52 50 45 39 35 33 31 29 26 23 20 18 16 15 16 15 13 11 9 8 9 9 9 9 9 10 10 10 10 10 10 11 11 11 11 11 11 11 11 11 11 11 11 12 12 12 11 11 11 11 12 14 16 18 19 20 22 23 23 23 23 24 23 23 22 21 22 22 22 22 23 26 29 31 34 37 43 48 49 48 47 47 50 55
50 47 43 38 35 34 33 30 27 24 21 18 16 14 14 14 14 12 10 9 9 9 9 10 10 10 10 10 11 11 11 11 11 12 12 12 12 12 12 12 12 13 13 12 13 13 13 12 12 11 11 11 12 14 16 17 19 21 22 23 23 23 23 24 24 24 22 22 23 23 22 23 24 26 29 32 35 39 43 49 52 53 52 52 56
47 43 38 36 36 35 32 27 24 21 19 17 16 14 14 13 12 11 10 11 11 11 10 10 11 11 11 12 12 12 12 12 12 13 13 13 13 13 13 13 13 13 13 14 14 14 14 14 13 12 12 12 11 12 13 14 17 19 20 22 23 24 24 25 25 25 24 24 24 24 24 24 24 25 26 28 32 35 39 45 52 56 56 57 58
48 42 38 38 36 32 27 24 21 20 18 16 16 15 14 12 10 9 11 12 13 13 12 13 13 13 13 13 13 13 13 13 13 14 14 14 14 14 13 13 13 13 14 14 15 15 15 15 15 15 14 13 13 12 12 12 14 16 18 20 22 23 24 25 26 26 26 25 25 25 25 25 25 25 25 25 28 32 35 40 45 50 54 59 61
47 41 38 36 31 26 24 22 20 19 17 17 17 15 14 11 10 11 12 14 15 15 15 15 15 15 15 15 15 15 15 15 15 15 16 16 16 15 14 15 14 14 14 14 15 15 16 16 16 16 16 15 14 14 13 13 12 13 15 18 20 22 23 24 25 26 27 27 27 27 27 26 26 26 26 26 26 28 31 35 39 43 48 53 59
42 39 37 32 26 23 22 21 19 18 18 18 18 16 13 12 12 14 15 16 16 16 17 17 17 17 17 17 17 17 17 17 17 17 17 17 17 16 16 16 16 16 16 16 15 15 16 16 16 17 16 16 16 16 15 15 14 13 13 14 16 19 21 23 24 25 27 28 28 29 29 28 27 27 27 27 27 27 29 31 34 38 41 45 52
41 38 33 27 23 21 21 20 19 19 20 20 18 15 14 14 15 16 17 17 17 18 18 18 19 20 20 19 19 19 19 19 19 19 19 19 18 18 18 18 18 18 18 17 17 16 16 16 16 16 16 17 17 17 17 17 16 15 14 13 13 15 17 20 22 24 26 27 28 30 30 29 28 28 28 28 28 29 29 30 33 35 38 41 45
41 35 27 22 21 20 19 19 20 21 22 20 18 16 16 17 18 18 19 18 18 19 20 20 21 22 22 21 21 22 22 22 22 22 22 21 21 20 20 21 20 20 19 19 18 18 18 18 17 17 17 17 17 18 18 18 18 17 16 15 14 14 14 15 17 20 23 26 27 29 30 30 30 30 29 28 29 30 29 30 31 34 36 39 41
38 30 24 22 20 19 19 20 21 22 22 20 18 17 18 19 20 20 20 20 20 21 22 22 23 23 24 24 24 24 25 26 26 25 25 24 23 23 23 24 23 22 21 21 20 19 19 19 19 18 18 17 17 18 18 18 19 18 17 17 16 15 15 14 14 16 19 23 26 28 30 30 30 30 30 30 30 31 31 31 31 33 35 38 39
32 26 23 22 21 21 22 22 23 23 20 19 19 19 20 20 21 21 21 22 22 23 23 24 24 25 25 25 25 26 27 28 28 28 28 27 26 26 26 27 26 24 23 23 22 22 21 21 21 21 20 19 18 18 18 19 19 19 18 18 17 17 17 16 15 15 15 18 22 26 29 31 31 30 30 31 31 32 31 31 32 33 34 36 38
27 24 24 23 22 23 24 25 24 22 19 18 19 20 20 21 21 22 23 23 24 24 25 25 26 26 26 26 27 27 28 29 30 30 29 29 29 29 29 29 28 26 25 25 24 24 24 23 23 23 23 21 20 19 20 20 20 20 20 19 19 18 18 17 17 17 16 16 18 21 25 29 32 32 31 31 32 33 32 32 32 32 33 34 36
24 24 23 23 24 24 25 26 25 21 19 19 20 20 21 22 22 23 24 24 24 25 26 26 27 27 27 28 29 29 29 30 30 30 30 31 31 31 30 29 29 29 28 27 26 26 26 26 26 26 26 25 23 22 22 23 23 23 22 21 21 20 20 19 19 19 18 18 17 17 19 22 27 31 32 33 32 32 33 33 32 32 33 33 34
23 24 23 24 26 27 27 25 23 21 20 20 20 20 21 22 23 24 24 25 25 26 26 27 27 28 28 29 30 30 31 31 31 31 31 32 31 31 30 30 30 30 30 29 29 28 28 29 29 29 29 28 26 25 25 26 26 25 25 25 24 24 23 22 21 21 20 20 20 19 18 19 20 23 28 32 33 34 33 33 33 33 34 34 34
24 23 24 26 28 29 27 23 20 21 21 22 21 21 22 22 23 24 25 26 26 27 27 28 28 29 29 30 30 30 31 32 32 32 33 32 31 31 31 31 32 32 32 32 31 30 30 31 32 32 32 31 30 29 28 27 28 27 27 27 27 27 27 26 25 25 24 23 23 22 22 21 20 19 21 24 29 33 35 35 34 33 34 35 36
24 23 26 30 30 28 24 21 20 21 22 22 22 23 23 23 24 25 26 26 27 27 28 28 29 29 30 30 30 31 31 32 33 33 33 32 32 32 31 31 32 32 33 33 33 32 32 32 33 33 34 34 33 33 32 30 30 30 30 30 30 30 30 30 30 29 29 28 27 26 25 24 24 23 21 21 22 26 31 35 37 36 34 34 36
23 24 29 32 29 25 22 20 21 22 22 22 23 23 23 25 25 26 26 27 27 28 28 29 29 30 30 31 31 32 32 32 33 33 33 33 33 33 33 33 33 33 33 34 34 34 33 33 33 33 34 35 35 35 34 34 33 32 32 33 32 33 33 33 33 33 33 32 32 31 30 29 28 27 26 24 23 22 24 28 33 37 37 37 36
25 28 32 30 25 22 21 21 21 22 22 22 23 24 25 26 26 26 27 28 28 29 29 29 30 31 31 32 32 32 32 33 33 33 33 34 34 34 35 35 35 34 34 33 33 33 33 33 33 33 33 34 35 35 35 35 35 35 35 35 35 36 36 36 36 36 36 36 35 35 35 35 34 32 31 30 28 26 25 25 27 31 35 37 39
29 32 31 26 21 20 21 22 22 23 23 23 24 25 26 26 26 27 28 28 29 29 30 30 31 32 32 32 32 32 32 33 33 33 34 34 35 35 36 36 36 36 35 34 33 33 33 34 35 35 34 35 35 35 36 36 36 37 37 38 38 38 39 39 39 39 38 38 38 38 37 38 38 38 37 36 35 33 31 29 28 27 28 31 35
34 33 28 23 21 22 22 23 23 23 23 24 25 26 26 27 27 27 28 28 29 29 30 31 31 32 32 32 32 32 32 33 33 34 34 35 35 36 36 37 37 37 36 35 34 33 33 34 35 36 37 37 37 37 37 37 37 37 38 39 40 41 41 42 42 42 42 42 42 42 41 41 40 40 40 41 41 40 39 37 35 32 30 29 29
36 32 25 22 23 23 23 23 24 23 24 25 26 26 27 27 27 28 28 28 29 29 30 30 31 31 31 31 32 32 33 33 33 34 34 34 35 35 36 36 37 37 37 38 37 35 34 33 34 36 37 38 38 39 38 38 38 38 39 40 41 42 43 44 45 45 46 46 46 46 46 46 45 44 43 42 42 43 44 44 43 41 38 35 33
33 27 22 21 22 22 22 22 22 23 25 26 27 27 27 27 27 28 28 28 29 29 29 30 30 30 31 31 31 31 32 33 34 34 33 34 34 35 35 36 37 37 38 39 39 38 36 34 34 35 36 37 38 39 40 40 41 41 41 42 43 45 46 47 48 49 49 50 51 51 51 51 50 49 48 47 45 44 45 46 48 48 47 44 41